Location: Beverley
(50.2667°N, 107.9667°W)
Time: 06:16:50
(UTC+00:00)

ZACube-1 - Pass Details

Date: 05 July 2022
Orbit: 582 x 661 km, 97.6° (Epoch: 09 August)

Event Time Altitude Azimuth Distance (km) Brightness Sun altitude
Rises 09:51:05 0° 29° (NNE) 2,968 ? -9.4°
Reaches altitude 10° 09:54:12 10° 52° (NE) 2,065 ? -9.1°
Maximum altitude 09:56:49 15° 88° (E) 1,746 ? -8.8°
Drops below altitude 10° 09:59:28 10° 124° (SE) 2,072 ? -8.6°
Sets 10:02:35 0° 147° (SSE) 2,983 ? -8.3°
